Date String (YYYY-MM-DD hh:mm:ss) UTC,Instrument flags,Ambient pressure (hPa),Sample flow (lpm),Bypass flow (lpm),Sample temperature (°C),Ambient temperature (°C),ASC tube jacket temperature (°C),LED temperature (°C),Box temperature (°C),Sample RH (%),Span deviation,Mass concentration (μg/m³),Mass concentration (μg/m³),Mass concentration (μg/m³)
DateTimeUTC,F1_M11,P_M11,Q1_M11,Q2_M11,T1_M11,T2_M11,T3_M11,T4_M11,T5_M11,U1_M11,ZSPAN_M11,X0_M11,X2_M11,X1_M11
2022-03-16 14:00:00,,0823.2,5.00,0.00,25.5,24.7,00.0,34.4,27.3,09.1,0002.3,0011.98,0006.34,0005.57
2022-03-16 14:01:00,,0823.3,4.98,0.00,25.5,24.7,00.0,34.4,27.3,09.1,0002.7,0011.83,0006.25,0005.51
2022-03-16 14:02:00,,0823.2,5.00,0.00,25.5,24.7,00.0,34.4,27.3,09.1,0002.5,0011.78,0006.13,0005.43
2022-03-16 14:03:00,,0823.3,5.01,0.00,25.5,24.7,00.0,34.4,27.3,09.1,0004.6,0011.94,0005.93,0005.29
2022-03-16 14:04:00,,0823.3,5.00,0.00,25.5,24.7,00.0,34.4,27.4,09.1,0004.5,0011.64,0005.79,0005.19
2022-03-16 14:05:00,,0823.3,5.00,0.00,25.5,24.7,00.0,34.4,27.4,09.1,0004.3,0010.83,0005.67,0005.10
2022-03-16 14:06:00,,0823.3,4.99,0.00,25.5,24.7,00.0,34.4,27.3,09.2,0004.1,0010.03,0005.55,0005.03
2022-03-16 14:07:00,,0823.3,5.00,0.00,25.5,24.7,00.0,34.4,27.3,09.2,0004.1,0009.78,0005.46,0004.96
2022-03-16 14:08:00,,0823.3,5.00,0.00,25.5,24.7,00.0,34.4,27.3,09.2,0004.9,0009.71,0005.41,0004.90
2022-03-16 14:09:00,,0823.3,5.00,0.00,25.5,24.7,00.0,34.4,27.3,09.1,0004.9,0009.81,0005.38,0004.85
2022-03-16 14:10:00,,0823.3,5.01,0.00,25.5,24.8,00.0,34.4,27.3,09.1,0005.3,0009.72,0005.36,0004.83
2022-03-16 14:11:00,,0823.3,5.00,0.00,25.6,24.8,00.0,34.5,27.4,09.2,0000.5,0009.56,0005.29,0004.79
2022-03-16 14:12:00,,0823.3,5.00,0.00,25.6,24.8,00.0,34.5,27.4,09.2,0000.0,0009.54,0005.20,0004.67
2022-03-16 14:13:00,,0823.3,5.01,0.00,25.6,24.8,00.0,34.5,27.4,09.3,0000.0,0009.34,0005.08,0004.56
2022-03-16 14:14:00,,0823.3,5.00,0.00,25.6,24.8,00.0,34.5,27.4,09.3,0000.0,0008.83,0005.03,0004.49
2022-03-16 14:15:00,,0823.3,4.99,0.00,25.6,24.8,00.0,34.5,27.4,09.3,0000.0,0008.56,0004.91,0004.37
2022-03-16 14:16:00,,0823.3,5.00,0.00,25.6,24.8,00.0,34.5,27.4,09.3,0000.0,0008.55,0004.84,0004.27
2022-03-16 14:17:00,,0823.2,5.00,0.00,25.6,24.7,00.0,34.5,27.3,09.2,0000.0,0008.44,0004.79,0004.21
2022-03-16 14:18:00,,0823.2,5.00,0.00,25.5,24.7,00.0,34.5,27.3,09.2,0000.0,0008.36,0004.72,0004.14
2022-03-16 14:19:00,,0823.2,5.00,0.00,25.5,24.6,00.0,34.5,27.2,09.3,0000.0,0008.51,0004.64,0004.08
2022-03-16 14:20:00,,0823.2,4.99,0.00,25.5,24.6,00.0,34.5,27.2,09.4,0000.0,0008.45,0004.59,0004.03
2022-03-16 14:21:00,,0823.2,4.99,0.00,25.4,24.6,00.0,34.5,27.2,09.4,0000.0,0008.41,0004.55,0003.97
2022-03-16 14:22:00,,0823.2,5.01,0.00,25.4,24.5,00.0,34.4,27.2,09.4,0000.0,0008.38,0004.49,0003.90
2022-03-16 14:23:00,,0823.2,5.01,0.00,25.4,24.5,00.0,34.4,27.2,09.4,0000.0,0008.56,0004.43,0003.88
2022-03-16 14:24:00,,0823.2,5.00,0.00,25.4,24.5,00.0,34.4,27.1,09.5,0000.0,0008.55,0004.41,0003.87
2022-03-16 14:25:00,,0823.1,5.00,0.00,25.4,24.5,00.0,34.4,27.2,09.5,0000.0,0008.58,0004.42,0003.88
2022-03-16 14:26:00,,0823.1,5.01,0.00,25.4,24.6,00.0,34.4,27.2,09.6,0000.0,0008.67,0004.48,0003.93
2022-03-16 14:27:00,,0823.1,4.99,0.00,25.4,24.6,00.0,34.4,27.2,09.8,0000.0,0009.35,0004.54,0003.96
2022-03-16 14:28:00,,0823.1,4.99,0.00,25.4,24.6,00.0,34.4,27.2,09.5,0000.0,0009.72,0004.56,0003.96
2022-03-16 14:29:00,,0823.1,5.00,0.00,25.4,24.6,00.0,34.4,27.2,09.5,0000.0,0009.70,0004.55,0003.94
2022-03-16 14:30:00,,0823.1,5.00,0.00,25.4,24.6,00.0,34.4,27.2,09.6,0000.0,0009.82,0004.51,0003.90
2022-03-16 14:31:00,,0823.1,5.00,0.00,25.4,24.6,00.0,34.4,27.2,09.6,0000.0,0009.60,0004.47,0003.87
2022-03-16 14:32:00,,0823.0,5.00,0.00,25.4,24.6,00.0,34.4,27.2,09.6,0000.0,0010.08,0004.46,0003.84
2022-03-16 14:33:00,,0823.0,5.00,0.00,25.4,24.6,00.0,34.4,27.2,09.6,0000.0,0010.24,0004.46,0003.82
2022-03-16 14:34:00,,0823.1,5.00,0.00,25.4,24.6,00.0,34.4,27.3,09.5,0000.0,0009.89,0004.44,0003.78
2022-03-16 14:35:00,,0823.0,4.98,0.00,25.4,24.7,00.0,34.4,27.2,09.6,0000.0,0009.89,0004.44,0003.76
2022-03-16 14:36:00,,0823.0,5.01,0.00,25.4,24.6,00.0,34.4,27.2,09.8,0000.0,0010.21,0004.39,0003.73
2022-03-16 14:37:00,,0822.9,5.00,0.00,25.4,24.6,00.0,34.4,27.2,09.7,0000.0,0010.19,0004.33,0003.70
2022-03-16 14:38:00,,0822.9,4.99,0.00,25.4,24.6,00.0,34.4,27.2,09.6,0000.0,0009.80,0004.31,0003.70
2022-03-16 14:39:00,,0822.9,5.01,0.00,25.4,24.6,00.0,34.4,27.2,09.6,0000.0,0009.64,0004.30,0003.70
2022-03-16 14:40:00,,0823.0,4.99,0.00,25.4,24.6,00.0,34.4,27.2,09.6,0000.0,0010.12,0004.32,0003.73
2022-03-16 14:41:00,,0823.0,5.00,0.00,25.4,24.6,00.0,34.4,27.2,09.6,0000.0,0010.27,0004.38,0003.77
2022-03-16 14:42:00,,0823.0,5.00,0.00,25.4,24.6,00.0,34.4,27.2,09.6,0000.0,0010.55,0004.48,0003.83
2022-03-16 14:43:00,,0822.9,5.00,0.00,25.4,24.6,00.0,34.3,27.2,09.6,0000.0,0010.19,0004.50,0003.88
2022-03-16 14:44:00,,0822.9,5.01,0.00,25.4,24.6,00.0,34.3,27.2,09.6,0000.0,0009.73,0004.39,0003.83
2022-03-16 14:45:00,,0823.1,5.00,0.00,25.4,24.6,00.0,34.3,27.2,09.6,0000.0,0009.63,0004.36,0003.83
2022-03-16 14:46:00,,0823.0,5.01,0.00,25.4,24.6,00.0,34.3,27.2,09.7,0000.0,0009.70,0004.43,0003.88
2022-03-16 14:47:00,,0823.0,4.99,0.00,25.4,24.6,00.0,34.3,27.2,09.9,0000.0,0009.40,0004.50,0003.95
2022-03-16 14:48:00,,0823.1,4.99,0.00,25.4,24.6,00.0,34.3,27.2,10.0,0000.0,0009.50,0004.57,0004.00
2022-03-16 14:49:00,,0823.1,5.00,0.00,25.4,24.6,00.0,34.3,27.2,10.0,0000.0,0009.78,0004.61,0004.03
2022-03-16 14:50:00,,0823.1,5.01,0.00,25.4,24.6,00.0,34.3,27.2,09.9,0000.0,0009.98,0004.67,0004.09
2022-03-16 14:51:00,,0823.1,5.00,0.00,25.4,24.6,00.0,34.3,27.2,09.8,0000.0,0010.08,0004.76,0004.15
2022-03-16 14:52:00,,0823.1,5.01,0.00,25.4,24.6,00.0,34.3,27.2,10.3,0000.0,0010.24,0004.83,0004.21
2022-03-16 14:53:00,,0823.1,5.00,0.00,25.3,24.5,00.0,34.3,27.2,10.1,0000.0,0010.76,0004.84,0004.23
2022-03-16 14:54:00,,0823.0,4.99,0.00,25.3,24.5,00.0,34.3,27.1,10.2,0000.0,0011.01,0004.85,0004.23
2022-03-16 14:55:00,,0823.1,4.99,0.00,25.3,24.5,00.0,34.3,27.1,10.2,0000.0,0011.68,0004.97,0004.31
2022-03-16 14:56:00,,0823.1,5.00,0.00,25.3,24.5,00.0,34.3,27.0,10.2,0000.0,0012.17,0005.00,0004.34
2022-03-16 14:57:00,,0823.1,5.00,0.00,25.3,24.5,00.0,34.3,27.0,10.0,0000.0,0012.08,0004.92,0004.27
2022-03-16 14:58:00,,0823.1,5.01,0.00,25.3,24.5,00.0,34.3,27.0,10.0,0000.0,0012.11,0004.82,0004.17
2022-03-16 14:59:00,,0823.0,5.00,0.00,25.2,24.5,00.0,34.3,27.0,10.1,0000.0,0012.40,0004.75,0004.06
